Weather Roundup
Issued by NWS Springfield, MO

Home | Current Version | Previous Version | Text Only | Print | Product List | Glossary On
Versions: 1 2 3 4 5 6 7 8 9 10 11 12 13 14 15 16 17 18 19 20 21 22 23 24 25 26 27 28 29 30 31 32 33 34 35 36 37 38 39 40 41 42 43 44 45 46 47 48 49 50
000
NZUS99 KSGF 242107
HRRSGF

HOURLY WEATHER
NATIONAL WEATHER SERVICE SPRINGFIELD MO
400 PM CDT TUE APR 24 2018

......SGF CWA......

CITY           SKY/WX    TMP DP  RH WIND       PRES   REMARKS
SPRINGFIELD    SUNNY     74  42  31 N14       30.02F
JOPLIN         SUNNY     74  41  30 N12       30.05F
WEST PLAINS    MOSUNNY   72  49  44 N12G22    30.01F
ROLLA          MOSUNNY   70  49  47 N12       30.02F
OSAGE BEACH    PTSUNNY   71  47  42 N9        30.03F
BRANSON        MOSUNNY   73  39  29 NW13G18   30.03F

......SURROUNDING SGF CWA......

CITY           SKY/WX    TMP DP  RH WIND       PRES   REMARKS
CHANUTE        MOSUNNY   76  33  21 NW6G16    30.07F
PARSONS        SUNNY     78  35  21 N9G17     30.07F
COFFEYVILLE    SUNNY     77  36  22 NE6       30.05F
EMPORIA        CLOUDY    74  33  22 N6        30.08S
GROVE OK       SUNNY     77  34  20 NW7G17    30.06S
ROGERS AR      SUNNY     73  40  30 VRB7      30.05F
SILOAM SPRINGS SUNNY     75  41  29 N8        30.05F
HARRISON AR    SUNNY     75  38  26 N14G24    30.02F
NEAR YELLVILLE SUNNY     76  43  30 N9G17     29.99F

......KANSAS AND MISSOURI......

CITY           SKY/WX    TMP DP  RH WIND       PRES   REMARKS
KANSAS CTY INT MOSUNNY   75  35  23 N13G22    30.06F
DOWNTOWN KC    SUNNY     77  35  21 N13G20    30.04F
COLUMBIA       CLOUDY    74  45  35 NW8       30.01F
SEDALIA        SUNNY     77  39  25 N12G29    30.04F
ST JOSEPH      MOSUNNY   77  34  21 VRB3      30.06F
ST LOUIS       PTSUNNY   68  51  54 N13       29.98F
SPIRIT OF STL  PTSUNNY   71  50  47 NE10      29.97F
KIRKSVILLE     MOSUNNY   73  34  23 N8G18     30.03F
WICHITA        CLOUDY    72  49  44 NW24G35   30.12R
TOPEKA         CLOUDY    79  36  21 N10G21    30.07F
OLATHE         SUNNY     74  34  23 N12       30.06F

......TENNESSEE......

CITY           SKY/WX    TMP DP  RH WIND       PRES   REMARKS
MEMPHIS        CLOUDY    65  57  75 NW13      29.98F
NASHVILLE      LGT RAIN  63  56  78 NW10      29.89F

......ARKANSAS.......

CITY           SKY/WX    TMP DP  RH WIND       PRES   REMARKS
FAYETTEVILLE   SUNNY     76  36  23 VRB7      30.03F
FT SMITH       SUNNY     81  39  22 NW14      29.99F
LITTLE ROCK    PTSUNNY   79  48  33 N6        29.97F

......OKLAHOMA.......

CITY           SKY/WX    TMP DP  RH WIND       PRES   REMARKS
TULSA          PTSUNNY   80  38  22 N7        30.03F
PONCA CITY     SUNNY     78  41  26 N9        30.07F
MCALESTER      SUNNY     79  41  25 W6        30.04F
OKLAHOMA CITY  MOSUNNY   77  46  33 CALM      30.07F

......IOWA............

CITY           SKY/WX    TMP DP  RH WIND       PRES   REMARKS
DES MOINES     PTSUNNY   75  36  24 NW12      30.05F
QUAD CITIES    FAIR      76  27  16 NW8       29.97F

......ILLINOIS........

CITY           SKY/WX    TMP DP  RH WIND       PRES   REMARKS
QUINCY         SUNNY     74  37  26 N10       29.99F
CHICAGO        FAIR      63  47  55 NE10      29.97F




USA.gov is the U.S. government's official web portal to all federal, state and local government web resources and services.